Home   Weather   Mexicali   Past weeks

Flag for Mexico Past Weather in Mexicali, Baja California, Mexico — Yesterday and Last 2 Weeks

Now
84 °F

Clear.


Feels Like: 89 °F
Forecast: 83 / 106 °F
Wind: 8 mph from Southeast

Location: Imperial County Airport

Current Time: Jul 22, 2017 at 5:56:57 am

Latest Report: Jul 22, 2017 at 4:53 am


Visibility: 10 mi

Pressure: 29.75 "Hg

Humidity: 65%

Dew Point: 71 °F

Location of MexicaliLocation

Past Weather in Mexicali — Graph

°F

Mexicali Temperature Yesterday

Maximum temperature yesterday: 108 °F (at 3:53 pm)
Minimum temperature yesterday: 83 °F (at 5:53 am)
Average temperature yesterday: 95 °F

High & Low Weather Summary for the Past Weeks

 TemperatureHumidityPressure
High120 °F (Jul 7, 4:53 pm)72% (Jul 16, 6:53 am)29.89 "Hg (Jul 16, 6:53 am)
Low82 °F (Jul 13, 3:53 am)11% (Jul 7, 2:53 pm)29.62 "Hg (Jul 7, 6:53 pm)
Average96 °F40%29.77 "Hg
* Reported Jul 7 3:53 am — Jul 22 3:53 am, Mexicali. Weather by CustomWeather, © 2017

Note: Actual official high and low records may vary slightly from our data, if they occured in-between our weather recording intervals... More about our weather records

Advertising

Mexicali Weather History for the Previous 24 Hours

Scroll right to see more
 ConditionsComfort  
Time TempWeatherWind HumidityBarometerVisibility
3:53 am
Sat, Jul 22
85 °FClear.9 mph61%29.74 "Hg10 mi
2:53 am85 °FClear.10 mph61%29.74 "Hg10 mi
1:53 am85 °FClear.6 mph57%29.74 "Hg10 mi
12:53 am89 °FClear.3 mph43%29.74 "Hg10 mi
11:53 pm
Fri, Jul 21
90 °FPassing clouds.3 mph41%29.74 "Hg10 mi
10:53 pm95 °FPassing clouds.13 mph32%29.74 "Hg10 mi
9:53 pm96 °FLight rain. Passing clouds.13 mph31%29.73 "Hg10 mi
8:53 pm97 °FPassing clouds.12 mph33%29.72 "Hg10 mi
7:53 pm100 °FLight rain. Passing clouds.15 mph30%29.70 "Hg10 mi
6:53 pm104 °FLight rain. Partly sunny.18 mph24%29.68 "Hg10 mi
5:53 pm106 °FOvercast.15 mph26%29.68 "Hg10 mi
4:53 pm108 °FOvercast.14 mph24%29.68 "Hg10 mi
3:53 pm108 °FMostly cloudy.13 mph26%29.70 "Hg10 mi
2:53 pm106 °FMostly cloudy.8 mph27%29.72 "Hg10 mi
1:53 pm104 °FPartly sunny.No wind23%29.76 "Hg10 mi
12:53 pm102 °FPassing clouds.3 mph26%29.80 "Hg10 mi
11:53 am100 °FPassing clouds.5 mph35%29.83 "Hg10 mi
10:53 am97 °FSunny.5 mph39%29.84 "Hg10 mi
9:53 am94 °FSunny.3 mph48%29.84 "Hg10 mi
8:53 am90 °FSunny.3 mph57%29.83 "Hg10 mi
7:53 am87 °FSunny.6 mph57%29.83 "Hg10 mi
6:53 am84 °FSunny.5 mph63%29.81 "Hg10 mi
5:53 am83 °FSunny.6 mph72%29.80 "Hg10 mi
Weather by CustomWeather, © 2017

See weather overviewHow to use our weather pages